FENGYUN 1C DEB

Satellite information

Favourite Embed

Satellite Type and Status

DEBRISIN ORBIT

Key statistics

Satellite FENGYUN 1C DEB at a glance.

Uptime

9556

Days in orbit

Revolutions

≈ 13.7

Per day

Orbit

SSO

Sun Synchronous Orbit

Inclination

99.1

Latest

Satellite identification and parameters

Extended collection of information and parameters for FENGYUN 1C DEB.

Object identification

Identified? True

Debris? True

Object name: FENGYUN 1C DEB

International designator: 1999-025AUQ

Object number (NORAD): 30806

Object ID (CCSDS): 30806

Country: PEOPLES REPUBLIC OF CHINA (PRC)

Current information (Y/N): Y

RCS size: SMALL

Orbital parameters

Period: 105.106 minutes

Inclination: 99.0502 deg

SMA: 7377.524 km

Apoapsis: 1197.684 km

Periapsis: 801.094 km

RAAN: 221.7944 deg

Eccentricy: 0.0268783

Argument of periapsis: 192.452 deg

Mean anomaly: 346.0745 deg

Mean motion: 13.70051297 rev/day

Mean motion (dot): 0.00000819 rev/day2

B* drag term: 0.00075813 1/REarth

Two-line elements (TLE)

Creation date: July 5, 2025, 4:36 a.m.

Reference frame: TEME

Reference center: EARTH

Epoch: July 4, 2025, 9:11 p.m. UTC

TLE line 0: 0 FENGYUN 1C DEB

TLE line 1: 1 30806U 99025AUQ 25185.88329940 .00000819 00000-0 75813-3 0 9991

TLE line 2: 2 30806 99.0502 221.7944 0268783 192.4520 346.0745 13.70051297914929

Live tracking on map

Real-time ground track for satellite FENGYUN 1C DEB.

In-orbit conjunctions

A list of the most updated potential collisions computed for object FENGYUN 1C DEB.

Target Orbit TCA Probability of collision Miss distance Type
FENGYUN 1C DEB SSO 2024-06-09 12:05:47 0.0001840558 341.0 (m) DEBRIS

Associated space launch

Chinese polar orbiting meteorological satellite

FENGYUN 1C DEB was lifted into orbit during the mission ‘Long March 4B | Feng Yun 1C’, on board a Long March 4B space rocket.

The launch took place on May 10, 1999, 1:33 a.m. from Launch Complex 7.

For more information about the launch, click the button.

Launch to space Long March 4B | Feng Yun 1C
Long March 4B | Feng Yun 1C

Agency: N/A

Status: Launch Successful

Launch date: May 10, 1999, 1:33 a.m. UTC

Rocket: Long March 4B

Launch pad: Launch Complex 7

Location: Taiyuan Satellite Launch Center, People's Republic of China

...

Latest news about this satellite

There are no fresh news available about this satellite. Check back as we update our databases every day.


Newsletter sign-up

Weekly statistics, charts and insights to help you stay on top of the space industry.